Powrót do katalogu

TRAAC

AktywnyNawigacjaLEO
NORAD 205·PAYLOAD·🇺🇸 United States

Wystrzelony Nov 15, 1961 z Cape Canaveral Space Force Station

Loading…

Następne Przeloty (najbliższe 24 godziny)

TLE

ŚwieżeSource: Space-Track

Epoka: Sep 14, 2026, 13:10 UTC

1 00205U 61031B   26257.54877008  .00000034  00000-0  13008-4 0  9992
2 00205  32.4413  71.6088 0102371 289.9323  69.0295 13.62578443231264

Śledź TRAAC w czasie rzeczywistym z AllMySat

Download on the App Store